Date,TemperatureHighF,TemperatureAvgF,TemperatureLowF,DewpointHighF,DewpointAvgF,DewpointLowF,HumidityHigh,HumidityAvg,HumidityLow,PressureMaxIn,PressureMinIn,WindSpeedMaxMPH,WindSpeedAvgMPH,GustSpeedMaxMPH,PrecipitationSumIn
2013-1-1,32.2,19.5,11.4,16.0,10.3,3.7,89,69,42,30.48,30.32,11,3,11,0.00
2013-1-2,33.4,24.7,17.6,12.3,7.6,1.8,66,48,31,30.53,30.35,12,3,13,0.00
2013-1-3,39.3,24.4,12.8,10.1,4.0,-0.6,66,43,23,30.55,30.41,11,4,12,0.00
2013-1-4,48.5,33.3,23.9,17.6,10.6,3.1,56,40,22,30.44,30.16,16,5,17,0.00
2013-1-5,40.4,29.4,22.1,16.8,11.4,5.9,63,47,33,30.45,30.19,16,5,17,0.00
2013-1-6,46.7,32.0,19.6,17.3,7.6,-1.5,61,37,19,30.45,30.08,11,3,11,0.00
2013-1-7,53.1,38.8,28.1,23.2,12.1,3.7,68,36,14,30.10,29.84,11,4,11,0.00
2013-1-8,52.1,42.2,31.2,19.8,16.0,5.5,58,36,18,30.24,29.82,33,5,35,0.00
2013-1-9,32.5,31.2,30.0,19.9,18.3,17.0,61,58,54,30.28,30.24,8,4,8,0.00
2013-1-10,45.4,33.9,24.2,24.3,17.2,9.7,67,51,24,30.07,29.53,8,3,0,0.00
2013-1-11,40.8,25.0,9.9,25.0,13.5,-1.9,89,67,19,29.96,29.36,28,6,29,0.00
2013-1-12,15.4,9.1,2.7,8.9,4.6,-1.0,88,82,68,30.41,29.96,10,2,11,0.00
2013-1-13,12.9,5.7,-1.5,6.1,0.3,-6.3,85,78,66,30.56,30.40,9,2,10,0.00
2013-1-14,17.6,7.0,-0.9,3.1,-0.9,-5.1,83,70,51,30.61,30.47,9,2,9,0.00
2013-1-15,3.5,1.9,0.5,-3.4,-5.0,-6.2,74,72,70,30.53,30.52,6,4,6,0.00
2013-1-16,54.8,39.1,28.0,25.2,19.8,15.8,62,47,26,30.44,30.28,9,4,0,0.00
2013-1-17,51.4,35.0,26.6,20.6,16.9,11.5,65,49,27,30.53,30.31,10,4,9,0.00
2013-1-18,58.1,45.9,28.1,15.9,5.7,1.8,50,22,11,30.32,30.03,38,6,38,0.00
2013-1-19,57.7,43.7,30.6,12.3,7.6,2.0,41,23,13,30.23,30.08,10,4,10,0.00
2013-1-20,33.8,24.9,19.5,14.3,13.3,11.7,75,62,43,30.38,30.29,7,4,7,0.00
2013-1-21,53.1,31.6,17.7,17.8,13.7,10.7,81,53,20,30.36,30.21,9,3,9,0.00
2013-1-22,40.1,39.4,38.8,5.9,4.2,2.1,25,23,20,30.16,30.15,7,4,8,0.00
2013-1-23,66.2,52.2,35.6,11.4,-4.8,-25.7,35,12,3,30.16,30.01,20,4,20,0.00
2013-1-24,62.1,48.4,29.2,27.8,13.0,-3.4,50,27,8,30.09,29.91,40,6,47,0.00
2013-1-25,53.7,42.6,31.7,29.7,25.7,21.0,68,52,34,30.12,30.01,12,4,12,0.00
2013-1-26,51.3,42.4,33.2,34.2,28.2,24.2,76,58,41,30.07,29.75,11,3,11,0.00
2013-1-27,59.0,45.3,35.1,35.9,28.6,19.3,83,55,24,29.76,29.67,15,4,15,0.00
2013-1-28,46.9,35.7,25.8,31.3,24.9,19.0,90,66,45,29.79,29.55,12,4,12,0.00
2013-1-29,31.6,24.7,12.9,23.3,13.0,-2.2,92,64,23,30.13,29.77,27,5,28,0.00
2013-1-30,41.1,26.7,9.1,18.2,11.1,-0.4,78,53,33,30.14,30.01,29,4,29,0.00
2013-1-31,46.8,34.0,21.7,25.2,20.5,14.3,87,60,29,30.24,30.04,24,4,25,0.00
2013-2-1,49.2,35.0,22.2,23.8,18.9,13.7,88,55,26,30.28,30.13,29,4,30,0.00
2013-2-2,55.7,37.0,23.7,25.1,19.9,14.9,79,53,22,30.38,30.28,11,3,12,0.00
2013-2-3,50.1,37.4,28.4,17.6,12.7,2.1,56,38,19,30.34,29.93,10,3,10,0.00
2013-2-4,54.7,41.6,25.8,16.0,10.2,2.5,50,29,14,30.03,29.87,17,4,20,0.00
2013-2-5,55.9,41.8,28.9,21.6,17.3,11.6,63,38,24,30.08,29.85,14,4,15,0.00
2013-2-6,53.9,43.1,32.3,34.3,24.8,19.0,93,51,28,30.10,29.79,25,4,25,0.03
2013-2-7,48.5,34.5,23.9,30.3,19.5,7.2,92,59,24,30.22,30.10,14,4,14,0.00
2013-2-8,51.3,35.1,22.8,14.7,7.9,0.6,59,34,14,30.13,29.80,13,4,15,0.00
2013-2-9,38.5,30.1,23.0,29.2,18.4,5.6,93,64,32,29.80,29.61,14,3,16,0.00
2013-2-10,34.9,29.0,20.0,23.4,13.4,6.8,90,54,32,30.20,29.70,30,7,30,0.00
2013-2-11,26.8,21.3,12.9,18.6,14.8,9.1,88,76,62,30.29,30.19,12,3,12,0.00
2013-2-12,44.6,27.9,13.2,11.9,5.0,-1.5,84,43,15,30.31,30.19,12,3,12,0.00
2013-2-13,47.7,33.6,20.0,14.3,11.3,6.8,61,41,24,30.23,30.04,21,4,21,0.00
2013-2-14,33.9,26.6,22.6,23.3,19.5,12.9,88,75,48,30.46,30.11,18,3,19,0.00
2013-2-15,41.5,27.6,14.9,21.6,14.0,2.8,89,62,20,30.53,30.39,37,5,37,0.02
2013-2-16,57.7,41.7,20.5,21.8,13.5,4.8,80,38,15,30.39,30.00,23,3,24,0.00
2013-2-17,58.4,45.3,34.1,19.1,5.3,-6.7,45,21,7,30.00,29.49,26,5,32,0.00
2013-2-18,41.3,31.4,21.1,20.1,10.0,-1.4,75,44,18,30.21,29.70,21,4,24,0.00
2013-2-19,39.6,26.5,17.3,15.5,11.0,7.6,71,53,30,30.22,29.98,9,2,9,0.00
2013-2-20,36.8,24.8,16.8,25.2,17.6,12.2,92,75,45,29.99,29.80,13,3,14,0.00
2013-2-21,29.0,20.2,12.9,21.5,16.4,10.0,92,85,70,30.13,29.91,6,2,7,0.01
2013-2-22,35.2,23.5,12.8,20.5,16.0,7.7,92,74,42,30.20,30.05,14,4,16,0.00
2013-2-23,38.9,27.4,15.0,27.1,16.1,8.0,89,63,42,30.05,29.80,14,2,14,0.05
2013-2-24,29.4,25.6,16.8,26.8,23.3,14.1,94,91,84,30.28,29.89,21,5,23,0.00
2013-2-25,36.3,21.9,10.3,21.6,14.6,6.8,92,75,43,30.31,30.06,11,3,12,0.01
2013-2-26,39.3,29.0,16.2,27.4,18.3,10.9,90,65,46,30.31,30.01,27,7,31,0.08
2013-2-27,37.4,25.7,14.9,16.8,10.5,5.9,77,54,30,30.43,30.31,13,4,16,0.00
2013-2-28,40.1,30.5,16.4,19.5,10.0,4.0,65,44,24,30.46,30.34,12,3,14,0.00
2013-3-1,44.9,35.7,23.8,27.0,19.8,4.9,70,54,22,30.42,30.32,16,5,17,0.00
2013-3-2,57.4,43.1,31.7,30.7,26.2,21.8,70,53,29,30.39,30.04,9,3,10,0.00
2013-3-3,61.9,52.5,40.4,31.4,24.5,19.6,59,35,21,30.05,29.55,44,6,44,0.00
2013-3-4,46.6,29.9,19.8,31.3,20.5,5.9,91,69,33,30.35,29.56,20,4,26,0.03
2013-3-5,38.1,25.8,10.6,21.0,15.0,6.5,86,66,34,30.51,30.35,11,3,13,0.01
2013-3-6,54.8,37.6,22.8,32.6,25.4,17.6,85,64,31,30.35,29.93,14,4,14,0.00
2013-3-7,62.6,46.4,33.0,33.9,27.2,23.3,74,50,23,30.01,29.87,17,3,18,0.00
2013-3-8,45.9,37.1,30.5,33.2,29.7,24.1,87,75,59,29.96,29.74,13,2,13,0.00
2013-3-9,35.7,33.0,28.4,32.5,27.4,13.5,95,81,48,30.21,29.70,22,6,24,0.02
2013-3-10,49.4,35.0,18.9,26.9,17.9,10.4,75,51,29,30.27,30.11,20,5,20,0.03
2013-3-11,55.1,40.7,31.0,30.0,22.3,15.6,93,53,22,30.17,29.89,32,5,32,0.00
2013-3-12,35.4,29.4,23.7,29.3,25.3,21.5,93,85,72,30.41,30.18,12,3,12,0.05
2013-3-13,62.6,42.6,26.3,35.4,30.1,23.6,92,65,33,30.43,30.25,12,3,12,0.09
2013-3-14,69.5,55.3,43.1,32.7,27.1,14.9,58,36,14,30.26,30.00,22,4,23,0.00
2013-3-15,73.3,61.8,50.9,29.1,21.8,16.1,36,22,13,30.00,29.68,24,5,31,0.00
2013-3-16,59.3,46.4,37.5,34.0,30.7,25.9,75,56,29,29.87,29.70,23,3,23,0.00
2013-3-17,54.1,38.6,29.4,32.3,24.3,0.1,80,59,21,29.87,29.53,29,4,29,0.00
2013-3-18,48.0,37.8,24.5,19.8,7.3,-2.6,49,29,17,29.99,29.87,30,5,34,0.00
2013-3-19,53.9,41.9,23.3,18.6,-3.9,-33.8,75,22,2,30.38,29.98,29,5,29,0.00
2013-3-20,52.6,34.7,19.2,26.4,19.6,14.2,84,58,30,30.38,29.83,29,4,29,0.00
2013-3-21,52.9,42.6,31.0,37.0,19.2,-6.0,81,43,12,29.83,29.54,34,5,34,0.02
2013-3-22,41.2,31.4,24.9,28.9,19.9,9.3,94,65,41,30.06,29.77,19,5,19,0.00
2013-3-23,24.9,19.5,11.2,23.2,16.2,7.0,94,87,66,30.44,30.05,18,4,18,0.00
2013-3-24,22.4,12.5,8.3,12.3,6.4,3.4,84,77,62,30.44,30.39,14,3,14,0.00
2013-3-27,52.9,45.6,36.2,35.8,33.0,28.9,86,63,42,30.14,30.07,13,3,13,0.00
2013-3-28,61.2,48.3,33.8,35.6,30.5,26.2,88,54,29,30.13,30.03,14,3,14,0.00
2013-3-29,64.5,52.4,39.4,35.0,30.6,27.8,72,45,27,30.08,29.95,23,4,23,0.00
2013-3-30,63.2,47.6,37.5,38.9,32.0,23.6,91,59,23,30.17,29.93,28,4,28,0.01
2013-3-31,67.2,48.3,32.4,38.0,31.0,23.3,93,58,20,30.17,29.91,12,3,12,0.01
2013-4-1,50.9,39.1,27.7,35.6,30.0,23.8,89,71,50,30.16,30.02,12,2,12,0.04
2013-4-2,38.9,37.3,35.2,36.4,34.4,32.3,93,89,81,30.20,30.11,12,2,12,0.31
2013-4-3,61.1,46.6,35.7,43.6,35.9,28.5,96,71,36,30.22,30.05,19,3,22,0.01
2013-4-4,67.7,52.9,37.9,37.9,32.7,28.0,79,50,23,30.12,29.89,13,4,13,0.00
2013-4-5,71.5,57.3,47.6,35.8,30.0,22.8,54,38,17,29.89,29.55,33,4,33,0.00
2013-4-6,61.2,51.5,37.0,31.3,26.7,19.0,58,39,26,29.83,29.70,17,3,17,0.00
2013-4-7,63.2,51.1,39.1,38.7,31.8,21.4,82,51,23,29.78,29.58,29,4,29,0.00
2013-4-8,61.2,45.3,27.3,36.3,31.6,25.1,92,61,33,29.78,29.33,40,6,40,0.00
2013-4-9,27.9,22.1,13.4,25.6,16.0,9.7,92,77,68,30.42,29.77,20,7,20,0.00
2013-4-10,27.5,18.8,6.4,20.7,13.2,2.4,92,79,64,30.45,30.17,12,3,12,0.06
2013-4-11,54.2,37.3,17.6,36.3,27.8,15.2,93,71,39,30.18,29.91,27,3,27,0.01
2013-4-12,52.7,42.4,33.3,34.4,31.5,28.5,85,67,45,29.99,29.87,25,4,25,0.00
2013-4-13,64.4,44.8,31.4,37.4,31.8,23.6,93,66,22,29.96,29.42,17,3,17,0.00
2013-4-14,46.4,41.8,38.8,37.2,11.2,-5.1,90,31,14,29.73,29.43,28,7,28,0.23
2013-4-15,39.3,27.2,22.6,26.0,23.1,16.8,93,86,42,30.19,29.72,16,1,16,0.00
2013-4-16,32.3,27.1,22.0,29.4,24.8,20.3,95,91,82,30.20,30.06,13,1,13,0.00
2013-4-17,29.0,25.6,17.1,27.7,23.5,13.9,96,91,79,30.35,30.09,19,5,19,0.00
2013-4-18,41.6,25.2,11.9,20.5,15.2,8.4,91,68,38,30.38,30.31,14,3,14,0.14
2013-4-19,50.2,37.9,21.1,29.3,21.4,14.0,76,53,30,30.34,30.03,12,3,12,0.05
2013-4-20,55.2,43.9,31.8,36.0,30.8,26.5,83,62,40,30.04,29.91,9,2,9,0.00
2013-4-21,59.0,47.0,33.9,37.9,30.6,24.2,89,56,28,30.07,29.94,10,3,14,0.00
2013-4-22,47.3,33.0,22.5,38.5,28.2,20.8,94,83,53,30.41,29.85,20,4,20,0.00
2013-4-23,34.9,25.9,17.9,22.6,19.0,13.4,93,77,44,30.47,30.34,12,3,12,0.17
2013-4-24,52.8,38.1,23.7,28.2,21.5,16.4,81,54,30,30.37,30.25,17,4,17,0.14
2013-4-25,59.9,46.5,30.9,31.6,22.9,12.9,67,41,19,30.26,29.92,18,3,18,0.00
2013-4-26,65.9,54.6,41.3,28.5,21.5,11.5,52,30,14,30.13,29.99,19,5,19,0.00
2013-4-27,73.2,61.7,43.1,27.0,20.7,15.3,42,22,12,30.12,29.86,18,4,18,0.00
2013-4-28,77.5,65.9,49.6,34.5,24.0,-99.9,37,22,12,29.86,29.60,23,1,28,0.00
2013-4-29,77.1,65.2,48.8,39.3,29.5,15.4,64,31,11,29.70,29.36,28,5,28,0.00
2013-4-30,70.3,49.7,33.4,42.9,34.8,23.3,95,62,18,29.95,29.39,23,4,23,0.40
2013-5-1,33.8,29.4,23.2,32.8,27.8,20.9,97,94,85,30.79,29.94,13,2,13,0.06
2013-5-2,47.9,33.6,22.9,26.4,20.8,12.7,91,63,26,30.90,30.57,17,3,17,0.37
2013-5-3,57.8,44.5,28.4,33.7,27.3,22.5,82,54,29,30.57,30.14,10,2,10,0.00
2013-5-4,56.7,47.3,38.8,35.5,30.1,23.0,72,52,35,30.22,30.09,14,2,14,0.00
2013-5-5,57.8,46.3,32.2,35.8,28.4,22.2,75,51,30,30.23,30.07,12,3,12,0.00
2013-5-6,63.9,52.7,37.7,39.7,34.1,29.7,86,53,30,30.07,29.82,13,3,13,0.00
2013-5-7,65.7,56.0,46.8,43.3,38.3,32.8,69,52,36,29.87,29.76,16,4,16,0.00
2013-5-8,66.0,53.1,46.4,45.4,40.5,34.9,90,64,35,30.00,29.82,25,5,25,0.36
2013-5-9,57.9,50.6,46.2,46.3,42.0,38.3,86,73,51,30.14,29.99,21,5,21,0.28
2013-5-10,66.5,54.7,40.6,44.3,38.3,31.7,88,56,29,30.26,30.10,29,5,29,0.00
2013-5-11,65.7,54.7,42.7,46.5,40.4,35.8,80,59,36,30.31,30.11,14,4,14,0.00
2013-5-12,77.2,65.8,48.3,42.2,36.6,32.6,67,35,21,30.14,29.89,21,4,21,0.00
2013-5-13,83.3,71.8,56.7,46.5,39.3,35.0,50,32,19,29.94,29.75,17,4,17,0.00
2013-5-14,83.5,73.4,60.1,45.3,37.6,30.6,43,28,16,29.75,29.60,25,4,25,0.00
2013-5-15,77.1,67.0,54.9,51.2,41.3,33.6,81,42,22,29.73,29.60,23,4,23,0.00
2013-5-16,79.0,65.5,51.6,54.3,43.4,31.8,83,49,19,29.70,29.58,25,3,25,0.02
2013-5-17,83.4,69.7,53.8,50.7,38.7,17.9,67,37,12,29.68,29.47,21,4,21,0.00
2013-5-18,75.1,64.8,54.3,41.9,32.6,15.5,56,32,12,29.62,29.50,19,5,28,0.00
2013-5-19,67.4,59.2,47.3,40.1,32.6,26.0,60,38,23,29.68,29.56,21,4,21,0.00
2013-5-20,63.9,55.0,47.5,45.9,40.3,27.0,87,59,33,29.90,29.67,29,4,29,0.07
2013-5-21,70.5,56.9,40.0,41.3,33.8,24.3,81,46,18,29.95,29.74,21,4,21,0.00
2013-5-22,72.8,57.4,41.5,48.6,39.5,33.8,81,54,29,29.95,29.74,22,3,22,0.01
2013-5-23,66.5,55.1,47.1,51.9,47.4,44.6,93,76,53,29.97,29.82,14,3,14,0.00
2013-5-24,82.0,62.4,45.7,54.3,46.1,33.6,94,62,18,29.88,29.73,14,2,14,0.00
2013-5-25,85.0,69.4,52.8,56.2,45.6,26.7,85,48,16,29.80,29.59,18,4,18,0.00
2013-5-26,81.7,71.4,59.0,42.0,31.5,19.1,39,24,10,29.66,29.56,23,5,23,0.00
2013-5-27,79.7,67.5,53.9,41.0,31.0,17.0,56,28,11,29.62,29.45,20,4,20,0.00
2013-5-28,78.9,63.5,49.7,47.6,39.1,27.1,65,43,16,29.61,29.33,29,4,29,0.00
2013-5-29,61.7,54.7,46.4,48.6,43.5,32.3,93,68,38,29.58,29.40,24,3,24,0.56
2013-5-30,67.7,59.0,48.4,33.9,28.4,20.5,56,33,18,29.70,29.52,35,6,35,0.00
2013-5-31,69.7,59.2,43.5,35.7,22.8,13.7,60,27,14,29.88,29.67,32,6,32,0.00
2013-6-1,70.7,58.8,47.9,41.1,35.4,29.4,62,42,28,30.08,29.88,21,4,21,0.00
2013-6-2,80.0,62.2,42.7,45.4,37.1,31.7,69,42,21,30.08,29.64,17,4,17,0.00
2013-6-3,85.8,71.9,52.7,43.5,33.0,23.7,52,27,11,29.65,29.46,26,5,26,0.00
2013-6-4,71.3,59.5,48.3,49.6,42.7,26.7,71,55,30,30.05,29.64,24,4,24,0.00
2013-6-5,61.7,52.6,46.8,48.4,43.9,40.1,87,73,58,30.10,30.00,14,3,14,0.00
2013-6-6,78.5,62.1,45.8,48.5,42.1,36.0,88,53,23,30.04,29.88,11,3,11,0.00
2013-6-7,80.3,66.2,52.7,52.6,43.5,38.5,61,45,26,29.96,29.55,13,3,13,0.01
2013-6-8,75.9,65.5,54.7,50.2,43.6,37.6,66,46,31,29.83,29.51,20,5,20,0.00
2013-6-9,87.0,69.3,49.7,48.7,41.8,34.4,73,41,18,29.86,29.68,12,4,12,0.00
2013-6-10,96.4,79.2,62.4,55.0,39.0,24.3,45,26,8,29.68,29.50,28,4,28,0.00
2013-6-11,93.5,80.1,61.7,46.6,30.0,7.0,47,20,5,29.64,29.43,25,5,25,0.00
2013-6-12,90.4,74.6,56.5,54.7,35.5,24.1,65,26,13,29.85,29.64,20,5,20,0.00
2013-6-13,82.5,66.4,54.3,59.4,53.8,48.0,90,66,39,29.85,29.63,19,2,19,0.00
2013-6-14,89.3,73.3,58.1,50.7,43.4,8.9,69,39,6,29.74,29.59,37,4,37,0.00
2013-6-15,81.5,68.7,56.6,57.9,49.0,45.6,82,51,31,29.84,29.69,14,3,14,0.01
2013-6-16,81.2,68.2,54.7,57.4,47.5,33.9,88,52,22,29.91,29.77,29,4,29,0.00
2013-6-17,80.7,66.1,52.6,54.4,46.8,38.3,73,52,26,29.95,29.80,16,4,16,0.00
2013-6-18,84.5,66.3,51.6,56.6,50.9,36.6,91,62,19,29.93,29.65,19,3,19,0.01
2013-6-19,92.2,72.1,50.1,54.7,39.7,1.0,89,44,4,29.80,29.42,20,4,20,0.00
2013-6-20,87.3,72.3,52.9,48.7,32.8,19.7,52,26,11,29.64,29.50,16,5,16,0.00
2013-6-21,92.0,76.6,61.6,56.9,41.6,23.0,54,32,10,29.64,29.45,21,4,21,0.00
2013-6-22,86.3,68.4,53.2,52.3,47.1,35.3,74,50,18,29.68,29.47,20,3,20,0.00
2013-6-23,81.9,66.9,50.2,53.1,46.3,37.6,75,50,28,29.81,29.58,17,4,17,0.00
2013-6-24,87.7,76.0,59.4,50.6,39.6,18.5,64,32,10,29.69,29.44,20,4,20,0.00
2013-6-25,88.8,78.2,64.8,47.3,34.4,24.7,43,21,14,29.68,29.49,21,4,21,0.00
2013-6-26,94.6,79.8,63.9,45.2,38.9,35.0,43,24,13,29.77,29.67,16,5,16,0.00
2013-6-27,94.9,83.5,67.2,51.6,40.2,28.8,48,23,10,29.88,29.74,18,5,18,0.00
2013-6-28,90.5,74.0,58.9,67.0,53.3,44.4,86,51,28,29.96,29.78,25,5,25,0.38
2013-6-29,84.2,71.9,61.1,59.7,55.8,50.2,78,59,32,29.95,29.83,16,3,16,0.00
2013-6-30,79.8,68.4,61.8,57.8,55.8,53.6,83,65,44,29.97,29.88,13,3,13,0.00
2013-7-1,76.8,66.4,56.5,59.5,54.1,49.3,86,66,46,30.08,29.96,15,3,15,0.02
2013-7-2,81.5,67.9,54.3,57.5,51.6,47.7,86,59,32,30.06,29.90,15,3,15,0.00
2013-7-3,85.3,72.9,60.5,52.5,47.8,41.5,61,43,24,29.91,29.64,16,4,16,0.00
2013-7-4,88.8,77.8,64.7,51.4,46.3,42.3,54,34,21,29.70,29.56,17,4,17,0.00
2013-7-5,84.0,72.0,64.1,63.0,53.3,47.1,80,53,35,29.61,29.51,18,4,18,0.07
2013-7-6,89.0,76.6,63.6,59.6,52.3,46.5,70,45,25,29.68,29.57,30,5,30,0.06
2013-7-7,85.3,73.0,62.3,62.0,54.3,47.0,68,53,35,29.75,29.64,24,4,24,0.26
2013-7-8,89.2,74.5,59.4,60.9,52.2,41.8,87,51,20,29.83,29.73,16,4,8,0.00
2013-7-9,91.3,79.0,65.4,53.0,44.9,37.0,48,32,16,29.91,29.78,24,4,24,0.00
2013-7-10,89.3,73.5,59.9,63.3,54.5,45.8,71,53,32,29.93,29.70,15,3,15,0.03
2013-7-11,98.0,78.9,58.1,58.6,53.3,40.3,85,47,15,29.83,29.51,21,4,21,0.00
2013-7-12,88.4,75.9,67.0,61.5,54.4,46.4,81,50,30,29.74,29.56,24,4,24,0.10
2013-7-13,86.7,72.6,61.4,62.8,59.3,53.3,92,66,34,29.91,29.73,21,3,21,0.19
2013-7-14,80.3,69.8,60.1,63.7,59.5,54.2,92,71,47,29.97,29.81,19,3,19,0.00
2013-7-15,76.9,69.5,64.8,64.8,61.3,50.6,93,76,56,29.96,29.82,14,3,14,0.07
2013-7-16,83.5,69.1,53.2,55.0,51.2,47.1,90,57,31,29.99,29.88,15,3,15,0.00
2013-7-17,88.5,71.3,54.9,59.8,53.9,48.6,88,58,27,29.99,29.81,13,3,13,0.00
2013-7-18,90.2,71.6,59.6,60.7,55.5,48.3,88,60,27,29.92,29.75,24,5,24,0.19
2013-7-19,79.2,70.9,62.5,63.0,58.8,55.5,86,67,47,29.93,29.81,18,4,18,0.01
2013-7-20,83.2,70.1,57.8,64.8,56.1,50.1,89,63,42,29.83,29.68,28,3,28,0.12
2013-7-21,85.8,70.5,54.6,61.6,56.2,47.3,89,63,36,29.75,29.62,15,4,15,0.00
2013-7-22,90.3,77.3,61.4,61.1,49.1,28.8,67,38,20,29.73,29.60,14,4,14,0.00
2013-7-23,86.8,75.5,63.5,59.3,48.4,20.3,70,41,13,29.86,29.63,15,4,15,0.00
2013-7-24,81.8,70.9,60.3,62.0,55.6,41.1,82,61,27,29.97,29.73,25,5,26,0.00
2013-7-25,75.5,65.5,56.8,60.6,56.1,51.8,89,73,53,30.04,29.81,23,3,26,0.09
2013-7-26,85.0,70.1,55.9,56.4,51.4,43.3,85,55,24,30.07,29.88,20,3,20,0.00
2013-7-27,75.3,63.6,53.4,60.5,54.1,45.1,93,72,52,29.93,29.81,13,3,13,0.32
2013-7-28,59.0,58.6,57.8,57.4,57.0,56.4,95,94,93,29.90,29.78,5,1,5,0.00
2013-7-29,74.9,64.0,57.0,62.4,55.6,46.9,94,76,40,29.99,29.76,11,3,0,0.09
2013-7-30,83.9,70.7,59.6,64.7,53.4,49.6,84,57,32,30.02,29.90,9,3,14,0.04
2013-7-31,86.7,71.4,58.0,59.3,53.0,45.5,81,55,28,30.06,29.88,21,3,21,0.06
2013-8-1,86.8,71.3,57.2,61.6,53.5,43.1,88,57,23,29.97,29.70,18,3,18,0.00
2013-8-2,90.0,73.6,58.2,63.0,53.7,44.9,83,54,22,29.77,29.66,18,3,18,0.29
2013-8-3,84.2,69.3,59.9,65.7,57.8,51.7,88,69,41,30.00,29.73,26,4,26,0.05
2013-8-4,85.7,70.8,54.2,60.2,53.2,42.4,88,58,25,29.95,29.84,29,3,29,0.00
2013-8-5,83.2,76.0,66.9,55.4,51.3,43.6,60,43,30,29.82,29.71,15,4,15,0.00
2013-8-6,84.0,71.7,58.5,54.2,46.6,37.0,65,43,20,29.80,29.69,20,4,20,0.00
2013-8-7,73.3,65.3,57.6,57.0,52.7,44.1,87,65,43,29.87,29.78,16,3,16,0.00
2013-8-8,73.7,64.2,55.2,59.5,55.7,50.3,93,75,54,29.98,29.82,17,2,17,0.00
2013-8-9,77.5,65.3,53.4,52.9,49.7,44.3,82,59,33,30.00,29.93,25,4,25,0.01
2013-8-10,85.5,71.0,54.9,51.4,46.6,41.8,82,45,24,30.02,29.85,16,4,16,0.00
2013-8-11,82.0,70.5,61.2,55.5,47.9,41.5,79,47,24,29.94,29.84,20,4,20,0.01
2013-8-12,65.0,59.8,53.7,52.7,49.9,47.8,85,70,57,29.94,29.90,18,4,18,0.00
2013-8-13,75.9,65.8,51.9,53.3,48.3,44.6,83,55,33,30.03,29.92,8,3,8,0.00
2013-8-14,79.8,66.1,51.1,52.8,48.4,42.1,90,56,28,30.02,29.87,26,3,26,0.00
2013-8-15,84.5,69.0,55.1,52.8,46.2,37.6,67,46,27,29.96,29.85,12,4,12,0.00
2013-8-16,90.1,75.0,60.3,50.1,44.4,32.0,62,37,13,29.95,29.81,13,4,13,0.00
2013-8-17,93.7,75.9,60.1,54.8,43.5,31.1,66,36,12,29.89,29.70,13,3,13,0.00
2013-8-18,90.5,75.5,59.8,52.5,42.9,36.0,49,33,17,29.84,29.73,27,5,27,0.00
2013-8-19,93.8,78.8,61.5,49.2,43.3,38.3,49,31,15,29.82,29.67,16,3,16,0.00
2013-8-20,96.7,80.7,64.3,49.1,41.0,30.1,51,27,11,29.71,29.61,19,4,19,0.00
2013-8-21,88.5,78.7,67.9,55.1,47.4,40.9,59,34,25,29.82,29.69,21,4,21,0.00
2013-8-22,81.3,71.2,60.4,62.7,55.5,50.9,79,59,38,29.93,29.81,17,3,17,0.01
2013-8-23,86.3,72.8,58.7,58.9,53.7,45.1,82,54,31,29.92,29.67,23,4,23,0.01
2013-8-24,85.8,65.6,59.9,61.4,32.9,-99.9,65,39,28,29.83,29.71,21,-112,21,0.02
2013-8-25,88.7,43.9,66.1,54.1,-18.3,-99.9,62,20,24,29.81,29.68,18,-450,18,0.01
2013-8-26,89.3,75.9,63.5,58.6,53.9,51.8,68,48,30,29.85,29.76,19,4,19,0.00
2013-8-27,91.1,79.7,66.9,58.6,53.3,49.8,69,42,28,29.83,29.68,23,4,23,0.00
2013-8-28,90.8,79.8,70.0,53.9,49.8,41.1,53,37,23,29.79,29.69,20,5,20,0.00
2013-8-29,92.2,81.1,67.4,53.2,46.8,42.9,45,31,20,29.82,29.75,23,6,23,0.00
2013-8-30,90.0,78.5,67.3,54.2,49.1,45.1,49,36,23,29.85,29.73,20,4,20,0.00
2013-8-31,88.6,75.2,63.5,53.3,48.8,45.4,66,41,24,29.83,29.71,22,5,27,13.80
2013-9-1,77.3,69.7,62.8,59.2,54.8,48.4,74,60,48,29.91,29.82,11,3,13,0.00
2013-9-2,89.6,73.4,56.1,58.5,53.0,46.2,84,52,24,29.89,29.72,12,4,16,0.00
2013-9-3,91.5,78.5,65.0,63.1,53.9,49.5,66,44,26,29.79,29.68,12,4,17,0.05
2013-9-4,89.9,78.6,69.5,54.2,51.3,48.4,53,40,26,29.86,29.77,13,6,22,0.00
2013-9-5,90.4,77.3,63.3,55.4,52.5,47.1,70,44,24,29.88,29.78,10,3,14,0.00
2013-9-6,93.7,80.8,71.4,53.7,48.5,43.1,45,33,21,29.82,29.69,12,4,21,0.00
2013-9-7,90.1,77.9,65.5,53.3,48.6,45.9,51,37,24,29.79,29.66,13,4,15,0.00
2013-9-8,85.9,77.2,66.8,49.7,46.8,41.4,46,35,22,29.71,29.52,14,4,17,0.00
2013-9-9,81.4,68.9,59.7,60.9,54.8,48.4,94,64,37,29.79,29.57,14,5,17,0.86
2013-9-10,64.3,60.2,57.0,59.1,57.4,55.5,95,91,79,30.05,29.74,7,1,9,0.51
2013-9-11,63.4,60.6,58.8,61.2,58.8,57.3,95,94,91,30.06,30.01,11,2,18,2.70
2013-9-12,62.1,59.8,58.3,60.3,58.1,56.8,95,94,94,30.14,30.04,15,4,21,3.30
2013-9-13,73.4,63.3,57.9,61.7,58.3,55.6,94,85,58,30.04,29.70,9,1,12,0.28
2013-9-14,75.0,63.9,53.9,60.6,55.7,50.0,94,76,45,29.82,29.67,13,2,15,0.00
2013-9-15,61.5,56.5,53.3,56.2,53.9,51.7,95,91,79,30.15,29.82,14,3,14,1.98
2013-9-16,70.3,59.0,52.3,58.7,54.6,50.7,95,86,65,30.13,29.89,7,2,9,0.17
2013-9-17,82.6,67.3,52.6,60.0,50.6,42.2,93,60,26,29.92,29.60,12,3,14,0.00
2013-9-18,82.3,70.0,59.9,51.2,45.3,40.0,67,43,23,29.64,29.52,17,4,32,0.00
2013-9-19,64.2,57.3,49.2,49.4,45.1,38.4,90,65,45,30.04,29.63,10,2,18,0.08
2013-9-20,70.6,57.3,47.3,48.8,44.4,39.9,86,64,38,30.08,29.91,8,3,14,0.00
2013-9-21,80.9,63.9,50.0,51.4,45.6,41.6,81,55,25,29.91,29.60,13,4,18,0.00
2013-9-22,76.6,65.8,55.0,54.0,45.7,39.7,83,50,33,29.60,29.34,15,4,27,0.01
2013-9-23,67.5,59.5,50.9,51.2,38.3,30.6,93,49,28,29.89,29.32,18,4,32,0.33
2013-9-24,72.9,58.2,43.9,47.2,38.0,30.4,72,49,26,30.00,29.72,9,3,16,0.00
2013-9-25,76.2,60.5,46.0,50.6,42.4,34.1,76,54,22,29.71,29.29,10,3,12,0.00
2013-9-26,66.5,57.2,48.5,47.5,44.0,38.9,81,63,46,29.61,29.40,12,4,15,0.00
2013-9-27,56.9,47.1,41.3,50.4,44.5,35.1,95,91,65,29.95,29.58,10,3,16,0.37
2013-9-28,67.6,50.0,35.5,41.8,35.1,24.4,90,59,27,30.16,29.96,11,2,20,0.00
2013-9-29,74.2,60.1,45.1,40.4,32.8,23.1,71,39,17,30.06,29.76,13,4,27,0.00
2013-9-30,76.4,67.4,57.1,50.2,36.6,23.7,53,34,19,29.76,29.53,19,4,38,0.00
2013-10-1,70.5,61.4,53.0,46.8,40.3,28.9,66,47,22,29.90,29.67,13,4,23,0.00
2013-10-2,74.5,61.0,49.7,45.1,40.8,33.5,76,50,26,29.82,29.70,14,3,16,0.00
2013-10-3,60.3,50.1,41.2,48.5,42.0,37.1,95,75,55,29.76,29.64,10,3,14,0.38
2013-10-4,45.7,39.3,31.7,43.7,30.6,20.4,95,73,41,30.21,29.71,25,8,30,0.26
2013-10-5,62.1,46.8,31.6,28.9,18.8,3.9,83,40,10,30.26,30.14,18,4,29,0.00
2013-10-6,67.3,53.1,38.6,40.3,29.3,6.0,66,42,16,30.21,30.11,9,4,12,0.00
2013-10-7,73.7,58.1,41.6,42.4,34.1,27.3,66,42,21,30.11,29.78,9,3,15,0.00
2013-10-8,74.9,62.3,52.2,44.1,35.1,26.7,56,38,17,29.78,29.55,13,4,18,0.00
2013-10-9,61.7,54.5,48.1,45.0,39.4,32.8,82,58,38,29.84,29.62,8,3,11,0.00
2013-10-10,55.3,49.5,42.5,48.2,42.8,31.0,94,79,44,29.84,29.44,16,2,23,0.04
2013-10-11,59.3,53.9,40.0,39.8,32.0,26.7,88,45,29,29.96,29.38,22,6,32,0.00
2013-10-12,53.8,45.3,40.6,41.3,38.9,36.7,87,79,59,30.14,29.96,7,2,11,0.00
2013-10-13,58.1,47.2,35.8,44.8,39.9,33.4,93,77,59,30.15,29.84,6,2,10,0.00
2013-10-14,52.4,47.3,41.3,43.1,38.1,32.6,86,71,50,30.13,29.76,15,3,18,0.00
2013-10-15,44.1,39.4,35.8,34.8,28.8,23.9,82,66,53,30.31,30.12,9,2,12,0.00
2013-10-16,53.3,39.4,27.1,33.2,28.4,23.7,91,67,41,30.26,30.05,9,3,10,0.00
2013-10-17,45.6,40.3,34.5,34.2,29.9,23.0,90,67,51,30.16,30.05,7,2,12,0.00
2013-10-18,45.7,36.3,31.3,34.7,30.2,27.4,96,80,52,30.26,30.12,9,2,12,0.33
2013-10-19,63.7,49.1,32.4,35.9,26.6,20.9,82,44,23,30.19,29.87,13,3,19,0.00
2013-10-20,45.0,40.7,33.6,38.5,32.7,27.7,94,75,53,30.16,29.83,12,3,21,0.20
2013-10-21,60.1,45.5,31.3,35.6,29.7,25.7,94,59,29,30.26,30.12,12,4,25,0.00
2013-10-22,63.0,50.7,38.3,37.8,32.6,26.3,77,52,34,30.18,30.03,9,4,13,0.00
2013-10-23,63.6,51.2,42.9,38.0,32.9,27.1,71,51,33,30.17,30.05,10,4,15,0.00
2013-10-24,53.2,41.8,31.7,41.8,35.9,29.6,94,80,63,30.27,30.17,11,3,12,0.00
2013-10-25,68.2,51.4,36.6,41.1,33.6,26.7,92,55,21,30.26,30.06,13,4,15,0.00
2013-10-26,61.2,50.0,38.1,39.1,33.3,28.2,75,54,38,30.28,30.07,13,4,18,0.00
2013-10-27,68.5,57.2,41.3,31.3,26.6,22.4,64,33,18,30.07,29.72,17,4,25,0.00
2013-10-28,53.2,37.4,31.3,33.7,31.0,27.2,95,81,37,30.09,29.75,11,2,13,0.07
2013-10-29,37.3,34.1,31.6,34.9,32.2,30.5,96,93,87,30.13,29.99,6,2,9,0.04
2013-10-30,45.4,36.5,31.5,38.1,33.0,27.0,96,88,63,30.01,29.89,9,2,15,0.32
2013-10-31,52.6,43.4,32.1,32.7,25.1,18.5,81,51,31,29.91,29.82,27,5,41,0.00
2013-11-1,55.0,43.8,33.2,33.8,27.8,19.1,76,55,25,30.23,29.89,12,3,24,0.00
2013-11-2,60.2,42.0,29.8,35.5,27.4,22.0,79,58,37,30.25,29.77,8,3,11,0.00
2013-11-3,65.1,50.8,39.2,33.2,25.4,17.7,74,40,16,29.78,29.48,18,4,23,0.01
2013-11-4,40.4,35.2,30.1,31.3,22.6,17.4,90,62,40,30.04,29.74,14,4,20,0.00
2013-11-5,44.1,34.4,23.7,25.5,15.7,0.0,79,50,19,30.23,29.99,18,4,26,0.00
2013-11-6,49.3,38.1,24.5,24.0,16.2,9.3,62,42,29,30.39,30.22,22,4,28,0.00
2013-11-7,47.1,41.2,38.8,29.4,26.8,24.9,65,56,46,30.22,30.03,8,4,12,0.00
2013-11-8,63.2,50.3,38.2,28.3,24.0,19.5,65,38,20,30.03,29.76,25,5,45,0.00
2013-11-9,54.6,43.3,36.8,36.0,29.8,24.4,71,59,43,30.26,29.96,7,2,9,0.00
2013-11-10,65.8,48.1,34.9,36.9,29.0,23.8,81,52,21,30.27,30.14,8,3,10,0.00
2013-11-11,60.4,42.9,30.4,34.2,27.3,21.4,89,58,25,30.66,30.15,10,3,16,0.00
2013-11-12,57.3,39.7,26.5,37.5,30.2,24.4,94,72,36,30.70,30.44,10,2,12,0.00
2013-11-13,63.4,53.5,39.1,30.3,21.7,15.0,63,31,17,30.44,29.92,11,3,17,0.00
2013-11-14,55.6,46.7,37.9,36.6,30.8,21.5,73,56,28,29.97,29.70,14,4,16,0.00
2013-11-15,60.8,46.5,32.4,33.8,25.9,14.3,85,49,16,29.70,29.42,19,4,27,0.00
2013-11-16,54.3,45.0,35.6,29.3,22.7,17.0,77,42,28,29.54,29.22,24,4,40,0.00
2013-11-17,55.2,41.4,31.1,30.0,19.6,13.4,87,46,21,30.10,29.50,22,5,45,0.00
2013-11-18,64.1,42.3,27.2,28.8,21.6,12.1,74,47,13,30.21,30.04,14,4,20,0.00
2013-11-19,57.2,48.0,37.7,29.4,22.7,15.9,56,37,24,30.04,29.67,14,4,19,0.00
2013-11-20,55.7,44.6,28.7,32.5,28.3,22.4,77,54,33,30.02,29.71,22,3,24,0.00
2013-11-21,28.7,16.5,14.0,23.1,13.3,10.7,91,87,78,30.86,30.02,8,2,12,0.00
2013-11-22,36.3,24.8,14.0,23.2,17.0,5.1,89,74,37,30.88,30.75,7,1,9,0.01
2013-11-23,35.5,28.0,21.9,23.8,20.9,12.7,89,75,50,30.83,30.48,7,2,11,0.00
2013-11-24,42.8,29.0,20.1,28.5,23.0,16.1,92,80,35,30.47,30.14,7,1,16,0.01
2013-11-25,42.4,36.7,29.5,28.5,23.7,15.3,81,60,34,30.39,30.20,10,2,13,0.04
2013-11-26,49.6,37.2,28.4,29.1,23.6,18.1,81,60,33,30.48,30.32,10,3,19,0.01
2013-11-27,62.5,43.0,29.4,32.5,25.6,20.0,75,52,24,30.32,30.07,9,3,9,0.00
2013-11-28,43.8,35.8,29.6,28.8,25.9,22.3,84,67,53,30.25,30.16,8,2,10,0.00
2013-11-29,59.0,48.2,32.0,29.7,23.2,17.9,81,41,23,30.21,30.10,24,4,30,0.00
2013-11-30,56.1,43.1,35.0,27.2,22.1,18.9,60,44,27,30.18,30.07,9,4,10,0.00
2013-12-1,53.8,45.2,34.3,27.2,23.0,19.9,63,43,27,30.17,29.83,23,5,44,0.00
2013-12-2,56.9,50.8,43.6,28.5,24.2,21.0,44,36,25,29.85,29.43,25,6,44,0.00
2013-12-3,52.8,31.9,9.6,30.7,19.6,6.5,89,64,34,29.86,29.38,12,4,20,0.00
2013-12-4,12.6,7.1,1.3,7.2,2.8,-3.0,87,82,71,30.47,29.86,8,2,9,0.00
2013-12-5,6.9,0.9,-8.0,0.0,-4.2,-12.0,86,78,63,30.61,30.45,6,2,8,0.00
2013-12-6,6.0,-0.6,-7.0,-1.0,-5.2,-12.0,85,80,70,30.73,30.61,6,2,8,0.00
2013-12-7,7.5,1.8,-4.0,1.0,-2.8,-9.0,84,80,72,30.72,30.25,5,2,7,0.00
2013-12-8,21.8,7.2,0.0,9.9,2.3,-5.0,88,80,59,30.45,30.17,7,2,10,0.00
2013-12-9,29.1,12.7,-2.0,4.7,-0.1,-7.0,85,60,28,30.50,30.38,43,5,49,0.00
2013-12-10,41.1,33.4,19.7,16.2,9.9,0.0,64,38,28,30.46,30.02,40,9,53,0.00
2013-12-11,30.0,20.8,11.0,18.6,13.9,7.9,89,75,53,30.58,30.34,8,3,13,0.00
2013-12-12,53.2,34.3,23.4,20.9,14.3,8.2,64,45,23,30.56,30.05,8,3,10,0.00
2013-12-13,48.4,36.2,27.5,25.3,17.8,11.6,68,48,24,30.23,29.93,9,4,12,0.00
2013-12-14,44.6,33.3,22.5,23.2,18.1,15.3,77,55,33,30.36,30.23,13,4,19,0.00
2013-12-15,57.3,45.2,28.3,28.4,18.4,13.0,64,36,18,30.26,30.05,44,6,46,0.00
2013-12-16,52.1,51.0,42.7,19.6,17.0,10.0,30,26,25,30.15,29.95,35,14,47,0.00
2013-12-17,71.8,46.4,38.2,41.9,20.8,12.3,37,36,28,30.32,29.85,5,2,8,0.02
2013-12-18,71.7,66.9,64.1,43.3,38.1,35.0,39,35,31,29.84,29.43,0,0,1,0.00
2013-12-19,69.7,65.5,63.0,40.0,37.2,34.9,38,35,33,29.58,29.27,0,0,1,0.00
2013-12-20,63.7,34.8,18.3,36.8,24.0,13.6,92,72,25,29.68,29.49,6,1,7,0.01
2013-12-21,31.1,24.0,16.8,24.9,20.3,14.2,92,86,62,30.10,29.65,11,2,12,0.00
2013-12-22,34.1,26.1,18.4,22.8,19.4,15.5,92,76,58,30.43,30.10,15,2,19,0.00
2013-12-23,46.3,24.5,14.7,27.7,19.2,12.0,93,81,43,30.49,30.27,15,2,21,0.00
2013-12-24,49.9,40.7,23.7,32.0,18.1,7.0,72,41,22,30.32,30.07,42,7,55,0.00
2013-12-25,43.4,30.0,21.8,15.1,11.5,9.0,65,47,25,30.51,30.30,8,3,11,0.00
2013-12-26,53.2,42.3,27.6,20.7,12.3,3.1,54,31,16,30.38,30.28,14,4,22,0.00
2013-12-27,58.2,43.1,31.9,24.9,21.3,16.5,59,43,25,30.31,30.06,9,3,11,0.00
2013-12-28,54.2,38.7,21.5,25.8,22.2,18.6,89,54,27,30.26,29.83,21,4,23,0.00
2013-12-29,35.7,24.5,12.6,21.5,15.7,9.4,91,71,41,30.36,30.10,9,3,12,0.01
2013-12-30,47.4,34.4,25.1,17.8,15.5,13.5,62,47,26,30.38,30.16,9,3,25,0.00
2013-12-31,52.3,46.9,30.2,23.2,20.7,15.8,57,36,29,30.19,29.88,25,7,44,0.00
2014-1-1,47.1,33.7,21.6,30.8,25.3,18.8,90,73,37,30.34,29.84,17,3,25,0.00
2014-1-2,40.4,29.0,18.2,26.9,19.7,14.4,90,69,42,30.44,30.18,7,2,9,0.00